{"data":{"norad_id":59880,"epoch":"2026-05-25T04:16:51.019392Z","epoch_age_seconds":62750,"freshness":"FRESH","line1":"1 59880U 24098Y   26145.17836828  .00002334  00000+0  94333-4 0  9991","line2":"2 59880  43.0004 206.0653 0001300 274.1184  85.9519 15.27576658113549","mean_motion":15.27576658,"eccentricity":0.00013,"inclination_deg":43.0004,"raan_deg":206.0653,"arg_perigee_deg":274.1184,"mean_anomaly_deg":85.9519,"bstar":9.4333e-5,"rev_number":11354,"period_min":94.266954948457,"perigee_km":482.16714771476,"apogee_km":483.95105870159,"semimajor_km":6861.1961032082,"source":"CELESTRAK","updated_at":"2026-05-25T13:38:19.095123Z"}}